Location: Alphen
(52.1351°N, 4.6549°E)
Time: 02:12:26
(UTC+00:00)

Cosmos 1315 Rocket - Pass Details

Date: 27 January 2021
Orbit: 529 x 567 km, 81.2° (Epoch: 26 February)

Event Time Altitude Azimuth Distance (km) Brightness Sun altitude
Rises 05:45:06 0° 192° (SSW) 2,661 6.3 -15.8°
Reaches altitude 10° 05:47:14 10° 193° (SSW) 1,776 5.4 -15.5°
Maximum altitude 05:51:09 86° 283° (WNW) 540 2.7 -14.9°
Drops below altitude 10° 05:55:06 10° 12° (NNE) 1,796 5.4 -14.3°
Sets 05:57:16 0° 13° (NNE) 2,696 6.4 -14.0°
